Weather History for Great Falls, MT

Change the Weather History Date:

Sunday, June 8, 2014

  Actual Average Record
Temperature  
Mean Temperature 57 °F 58 °F  
Max Temperature 76 °F 71 °F 93 °F (1996)
Min Temperature 38 °F 45 °F 31 °F (1950)
Degree Days  
Heating Degree Days 8 8  
Month to date heating degree days 68 69  
Since 1 June heating degree days 68 69  
Since 1 July heating degree days 7856 7604  
Cooling Degree Days 0 1  
Month to date cooling degree days 0 4  
Year to date cooling degree days 0 11  
Since 1 June cooling degree days 0 4  
Growing Degree Days 7 (Base 50)    
Moisture  
Dew Point 31 °F    
Average Humidity 47    
Maximum Humidity 76    
Minimum Humidity 18    
Precipitation  
Precipitation 0.00 in 0.10 in 2.28 in (1964)
Month to date precipitation 0.45 0.84  
Year to date precipitation 7.56 6.57  
Snow  
Snow 0.00 in 0.00 in 3.10 in (1950)
Month to date snowfall 0.0 0.2  
Since 1 June snowfall 0.0 0.2  
Since 1 July snowfall 76.4 63.4  
Snow Depth 0.00 in    
Sea Level Pressure  
Sea Level Pressure 30.02 in    
Wind  
Wind Speed 8 mph (WSW)    
Max Wind Speed 18 mph    
Max Gust Speed 24 mph    
Visibility 10 miles    
Events      
T = Trace of Precipitation, MM = Missing Value Source: NWS Daily Summary

Daily Weather History Graph

Daily Weather History Graph

Search for Another Location

Airport:

Trip Planner

Search our weather history database for the weather conditions in past years. The results will help you decide how hot, cold, wet, or windy it might be!

Date:

Astronomy

Jun. 08, 2014 Rise Set
Actual Time 5:29 AM MDT 9:20 PM MDT
Civil Twilight 4:49 AM MDT 10:00 PM MDT
Nautical Twilight 3:54 AM MDT 10:55 PM MDT
Astronomical Twilight 2:33 AM MDT 12:17 AM MDT
Moon 4:25 PM MDT (6/8) 2:43 AM MDT (6/8)
Length of Visible Light 17h 11m
Length of Day
15h 51m
Waxing Gibbous, 77% of the Moon is Illuminated
Jun 8
Waxing Gibbous
Jun 12
Full
Jun 19
Last Quarter
Jun 27
New
Jul 5
First Quarter

Hourly Weather History & Observations

Time (MDT) Temp. Windchill Dew Point Humidity Pressure Visibility Wind Dir Wind Speed Gust Speed Precip Events Conditions
12:53 AM 53.1 °F - 30.0 °F 41% 30.06 in 10.0 mi East 8.1 mph - N/A   Mostly Cloudy
1:53 AM 53.1 °F - 30.9 °F 43% 30.06 in 10.0 mi East 6.9 mph - N/A   Overcast
2:53 AM 51.1 °F - 32.0 °F 48% 30.06 in 10.0 mi ENE 3.5 mph - N/A   Overcast
3:53 AM 51.1 °F - 30.0 °F 44% 30.06 in 10.0 mi SE 5.8 mph - N/A   Partly Cloudy
4:53 AM 39.9 °F 35.8 °F 32.0 °F 73% 30.09 in 10.0 mi WSW 5.8 mph - N/A   Clear
5:53 AM 42.1 °F - 30.9 °F 65% 30.09 in 10.0 mi Calm Calm - N/A   Clear
6:53 AM 43.0 °F 41.3 °F 33.1 °F 68% 30.10 in 10.0 mi SW 3.5 mph - N/A   Partly Cloudy
7:53 AM 50.0 °F - 35.1 °F 57% 30.09 in 10.0 mi SSW 8.1 mph - N/A   Clear
8:53 AM 57.9 °F - 35.1 °F 42% 30.08 in 10.0 mi SW 9.2 mph - N/A   Clear
9:53 AM 62.1 °F - 33.1 °F 34% 30.07 in 10.0 mi SW 6.9 mph - N/A   Clear
10:53 AM 66.0 °F - 30.9 °F 27% 30.05 in 10.0 mi SW 10.4 mph - N/A   Clear
11:53 AM 68.0 °F - 30.0 °F 24% 30.04 in 10.0 mi West 8.1 mph - N/A   Clear
12:53 PM 71.1 °F - 28.9 °F 21% 30.02 in 10.0 mi West 15.0 mph 19.6 mph N/A   Partly Cloudy
1:53 PM 73.0 °F - 30.9 °F 21% 30.00 in 10.0 mi West 16.1 mph 21.9 mph N/A   Mostly Cloudy
2:53 PM 72.0 °F - 27.0 °F 19% 29.99 in 10.0 mi WNW 13.8 mph 23.0 mph N/A   Partly Cloudy
3:53 PM 73.0 °F - 28.0 °F 19% 29.99 in 10.0 mi WNW 5.8 mph 21.9 mph N/A   Scattered Clouds
4:53 PM 72.0 °F - 28.0 °F 20% 30.00 in 10.0 mi NW 9.2 mph - N/A   Mostly Cloudy
5:53 PM 75.0 °F - 28.0 °F 18% 29.97 in 10.0 mi WNW 12.7 mph - N/A   Scattered Clouds
6:53 PM 73.9 °F - 28.9 °F 19% 29.96 in 10.0 mi West 6.9 mph - N/A   Partly Cloudy
7:53 PM 72.0 °F - 28.9 °F 20% 29.95 in 10.0 mi NNW 8.1 mph - N/A   Mostly Cloudy
8:53 PM 66.0 °F - 34.0 °F 30% 29.94 in 10.0 mi ENE 4.6 mph - N/A   Scattered Clouds
9:53 PM 64.0 °F - 32.0 °F 30% 29.94 in 10.0 mi ESE 5.8 mph - N/A   Mostly Cloudy
10:53 PM 60.1 °F - 33.1 °F 36% 29.93 in 10.0 mi SSE 6.9 mph - N/A   Partly Cloudy
11:53 PM 54.0 °F - 34.0 °F 47% 29.93 in 10.0 mi SSW 8.1 mph - N/A   Clear